Rechercher aéroport 
image banner adimage banner ad
image banner ad

DAUI - In Salah

Situé à In Salah, Algeria

ICAO - DAUI, IATA - INZ

Données fournies par Airmate  

Information générale

Coordonnées: N27°15'13" E2°30'39"
Élévation : 895 feet MSL.
 
Voir autres Aéroports à Tamanghasset Province

Données opérationnelles

Accessible au public
Heure actuelle UTC:
Heure actuelle locale:
Météo
METAR: DAUI 301800Z 06018KT 8000 DRSA NSC 28/01 Q1017
TAF: TAF DAUI 301700Z 3018/3118 06018KT 8000 NSC PROB40 3020/3106 06018G28KT 4000 DRSA
Voir NOTAMs / SUP AIP / TFR affectant cet aéroport [VIEW]
Fréquences de communication: [VIEW]

Pistes:

Identifiant RWYQFULongueur (ft)Largeur (ft)SurfaceLDA (ft)
0551°9843148ASP
23231°9843148

Coordonnées de l'aéroport

Adresse: In Salah Algeria

Vue satellite de DAUI